Wetterdaten: Dienstag, 22.09.2015
Datum Zeit Temp. A. Feuchte A. Luftdruck Regen Wind Richtung Richtung Sonnenschein ET UV Solar Taupunkt Windchill Windben Empfang
22.09.2015 00:04 8,7 C 84 % 1012,4 hPa 0,0 l/m 0,0 km/h (0 Bft) O-NO 76 0 min 0,000 mm 0,0 UV-I 0 W/m 6,2 C 8,7 C 0,0 km/h (0 Bft) 0,00 %
22.09.2015 00:09 8,6 C 84 % 1012,4 hPa 0,0 l/m 0,0 km/h (0 Bft) O-NO 73 0 min 0,000 mm 0,0 UV-I 0 W/m 6,1 C 8,6 C 0,0 km/h (0 Bft) 0,00 %
22.09.2015 00:14 8,6 C 84 % 1012,2 hPa 0,0 l/m 0,0 km/h (0 Bft) NO 44 0 min 0,000 mm 0,0 UV-I 0 W/m 6,1 C 8,6 C 0,0 km/h (0 Bft) 0,00 %
22.09.2015 00:19 8,6 C 84 % 1012,2 hPa 0,0 l/m 0,0 km/h (0 Bft) O-NO 70 0 min 0,000 mm 0,0 UV-I 0 W/m 6,1 C 8,6 C 0,0 km/h (0 Bft) 0,00 %
22.09.2015 00:24 8,5 C 84 % 1012,0 hPa 0,0 l/m 0,0 km/h (0 Bft) O 90 0 min 0,000 mm 0,0 UV-I 0 W/m 6,0 C 8,5 C 0,0 km/h (0 Bft) 0,00 %
22.09.2015 00:29 8,5 C 84 % 1012,1 hPa 0,0 l/m 0,0 km/h (0 Bft) O-NO 63 0 min 0,000 mm 0,0 UV-I 0 W/m 6,0 C 8,5 C 0,0 km/h (0 Bft) 0,00 %
22.09.2015 00:34 8,3 C 85 % 1012,1 hPa 0,0 l/m 0,0 km/h (0 Bft) O-NO 71 0 min 0,000 mm 0,0 UV-I 0 W/m 5,9 C 8,3 C 0,0 km/h (0 Bft) 0,00 %
22.09.2015 00:39 8,0 C 86 % 1011,9 hPa 0,0 l/m 0,0 km/h (0 Bft) O-NO 67 0 min 0,000 mm 0,0 UV-I 0 W/m 5,8 C 8,0 C 0,0 km/h (0 Bft) 0,00 %
22.09.2015 00:44 7,8 C 87 % 1011,8 hPa 0,0 l/m 0,0 km/h (0 Bft) O-NO 73 0 min 0,000 mm 0,0 UV-I 0 W/m 5,8 C 7,8 C 0,0 km/h (0 Bft) 0,00 %
22.09.2015 00:49 7,6 C 87 % 1011,7 hPa 0,0 l/m 0,0 km/h (0 Bft) O-NO 64 0 min 0,000 mm 0,0 UV-I 0 W/m 5,6 C 7,6 C 0,0 km/h (0 Bft) 0,00 %
22.09.2015 00:54 7,5 C 88 % 1011,9 hPa 0,0 l/m 0,0 km/h (0 Bft) O-NO 65 0 min 0,000 mm 0,0 UV-I 0 W/m 5,6 C 7,5 C 0,0 km/h (0 Bft) 0,00 %
22.09.2015 00:59 7,3 C 89 % 1011,9 hPa 0,0 l/m 0,0 km/h (0 Bft) O-NO 66 0 min 0,000 mm 0,0 UV-I 0 W/m 5,6 C 7,3 C 0,0 km/h (0 Bft) 0,00 %
22.09.2015 01:04 7,3 C 90 % 1011,7 hPa 0,0 l/m 0,0 km/h (0 Bft) O-NO 70 0 min 0,000 mm 0,0 UV-I 0 W/m 5,8 C 7,3 C 0,0 km/h (0 Bft) 0,00 %
22.09.2015 01:09 7,3 C 90 % 1011,7 hPa 0,0 l/m 0,0 km/h (0 Bft) O 84 0 min 0,000 mm 0,0 UV-I 0 W/m 5,8 C 7,3 C 0,0 km/h (0 Bft) 0,00 %
22.09.2015 01:14 7,3 C 90 % 1011,7 hPa 0,0 l/m 0,0 km/h (0 Bft) O 81 0 min 0,000 mm 0,0 UV-I 0 W/m 5,8 C 7,3 C 0,0 km/h (0 Bft) 0,00 %
22.09.2015 01:19 7,5 C 90 % 1011,8 hPa 0,0 l/m 0,0 km/h (0 Bft) O 97 0 min 0,000 mm 0,0 UV-I 0 W/m 6,0 C 7,5 C 0,0 km/h (0 Bft) 0,00 %
22.09.2015 01:24 7,6 C 89 % 1011,8 hPa 0,0 l/m 0,0 km/h (0 Bft) O 101 0 min 0,000 mm 0,0 UV-I 0 W/m 5,9 C 7,6 C 0,0 km/h (0 Bft) 0,00 %
22.09.2015 01:29 7,8 C 87 % 1011,9 hPa 0,0 l/m 0,0 km/h (0 Bft) O-SO 122 0 min 0,000 mm 0,0 UV-I 0 W/m 5,8 C 7,8 C 0,0 km/h (0 Bft) 0,00 %
22.09.2015 01:34 8,0 C 86 % 1011,9 hPa 0,0 l/m 0,0 km/h (0 Bft) NO 46 0 min 0,000 mm 0,0 UV-I 0 W/m 5,8 C 8,0 C 0,0 km/h (0 Bft) 0,00 %
22.09.2015 01:39 7,9 C 86 % 1011,8 hPa 0,0 l/m 0,0 km/h (0 Bft) O-SO 113 0 min 0,000 mm 0,0 UV-I 0 W/m 5,7 C 7,9 C 0,0 km/h (0 Bft) 0,00 %
22.09.2015 01:44 7,8 C 87 % 1011,8 hPa 0,0 l/m 0,0 km/h (0 Bft) O-NO 65 0 min 0,000 mm 0,0 UV-I 0 W/m 5,8 C 7,8 C 0,0 km/h (0 Bft) 0,00 %
22.09.2015 01:49 7,7 C 87 % 1011,7 hPa 0,0 l/m 0,0 km/h (0 Bft) O-NO 60 0 min 0,000 mm 0,0 UV-I 0 W/m 5,7 C 7,7 C 0,0 km/h (0 Bft) 0,00 %
22.09.2015 01:54 7,7 C 87 % 1011,7 hPa 0,0 l/m 0,0 km/h (0 Bft) O-NO 62 0 min 0,000 mm 0,0 UV-I 0 W/m 5,7 C 7,7 C 0,0 km/h (0 Bft) 0,00 %
22.09.2015 01:59 7,6 C 87 % 1011,7 hPa 0,0 l/m 0,0 km/h (0 Bft) O-NO 60 0 min 0,000 mm 0,0 UV-I 0 W/m 5,6 C 7,6 C 0,0 km/h (0 Bft) 0,00 %
22.09.2015 02:04 7,5 C 87 % 1011,6 hPa 0,0 l/m 0,0 km/h (0 Bft) O-NO 68 0 min 0,000 mm 0,0 UV-I 0 W/m 5,5 C 7,5 C 0,0 km/h (0 Bft) 0,00 %
22.09.2015 02:09 7,2 C 88 % 1011,5 hPa 0,0 l/m 0,0 km/h (0 Bft) O 89 0 min 0,000 mm 0,0 UV-I 0 W/m 5,3 C 7,2 C 0,0 km/h (0 Bft) 0,00 %
22.09.2015 02:14 7,1 C 89 % 1011,4 hPa 0,0 l/m 0,0 km/h (0 Bft) O 98 0 min 0,000 mm 0,0 UV-I 0 W/m 5,4 C 7,1 C 0,0 km/h (0 Bft) 0,00 %
22.09.2015 02:19 7,1 C 89 % 1011,4 hPa 0,0 l/m 0,0 km/h (0 Bft) O-NO 69 0 min 0,000 mm 0,0 UV-I 0 W/m 5,4 C 7,1 C 0,0 km/h (0 Bft) 0,00 %
22.09.2015 02:24 7,2 C 90 % 1011,3 hPa 0,0 l/m 0,0 km/h (0 Bft) O-NO 78 0 min 0,000 mm 0,0 UV-I 0 W/m 5,7 C 7,2 C 0,0 km/h (0 Bft) 0,00 %
22.09.2015 02:29 7,2 C 89 % 1011,2 hPa 0,0 l/m 0,0 km/h (0 Bft) O 91 0 min 0,000 mm 0,0 UV-I 0 W/m 5,5 C 7,2 C 0,0 km/h (0 Bft) 0,00 %
22.09.2015 02:34 7,3 C 89 % 1011,1 hPa 0,0 l/m 0,0 km/h (0 Bft) O 91 0 min 0,000 mm 0,0 UV-I 0 W/m 5,6 C 7,3 C 0,0 km/h (0 Bft) 0,00 %
22.09.2015 02:39 7,3 C 89 % 1011,2 hPa 0,0 l/m 0,0 km/h (0 Bft) O-NO 66 0 min 0,000 mm 0,0 UV-I 0 W/m 5,6 C 7,3 C 0,0 km/h (0 Bft) 0,00 %
22.09.2015 02:44 7,3 C 89 % 1011,0 hPa 0,0 l/m 0,0 km/h (0 Bft) O-NO 78 0 min 0,000 mm 0,0 UV-I 0 W/m 5,6 C 7,3 C 0,0 km/h (0 Bft) 0,00 %
22.09.2015 02:49 7,2 C 89 % 1011,2 hPa 0,0 l/m 0,0 km/h (0 Bft) O-NO 69 0 min 0,000 mm 0,0 UV-I 0 W/m 5,5 C 7,2 C 0,0 km/h (0 Bft) 0,00 %
22.09.2015 02:54 7,0 C 90 % 1011,2 hPa 0,0 l/m 0,0 km/h (0 Bft) O-NO 66 0 min 0,000 mm 0,0 UV-I 0 W/m 5,5 C 7,0 C 0,0 km/h (0 Bft) 0,00 %
22.09.2015 02:59 6,8 C 90 % 1011,3 hPa 0,0 l/m 0,0 km/h (0 Bft) O-NO 73 0 min 0,000 mm 0,0 UV-I 0 W/m 5,3 C 6,8 C 0,0 km/h (0 Bft) 0,00 %
22.09.2015 03:04 6,7 C 90 % 1011,1 hPa 0,0 l/m 0,0 km/h (0 Bft) O-NO 71 0 min 0,000 mm 0,0 UV-I 0 W/m 5,2 C 6,7 C 0,0 km/h (0 Bft) 0,00 %
22.09.2015 03:10 6,4 C 90 % 1011,3 hPa 0,0 l/m 0,0 km/h (0 Bft) O-NO 64 0 min 0,000 mm 0,0 UV-I 0 W/m 4,9 C 6,4 C 0,0 km/h (0 Bft) 0,00 %
22.09.2015 03:15 6,2 C 90 % 1011,1 hPa 0,0 l/m 0,0 km/h (0 Bft) O-NO 61 0 min 0,000 mm 0,0 UV-I 0 W/m 4,7 C 6,2 C 0,0 km/h (0 Bft) 0,00 %
22.09.2015 03:20 6,1 C 91 % 1011,0 hPa 0,0 l/m 0,0 km/h (0 Bft) O-NO 62 0 min 0,000 mm 0,0 UV-I 0 W/m 4,7 C 6,1 C 0,0 km/h (0 Bft) 0,00 %
22.09.2015 03:25 5,9 C 91 % 1011,2 hPa 0,0 l/m 0,0 km/h (0 Bft) O-NO 62 0 min 0,000 mm 0,0 UV-I 0 W/m 4,5 C 5,9 C 0,0 km/h (0 Bft) 0,00 %
22.09.2015 03:30 5,7 C 92 % 1011,0 hPa 0,0 l/m 0,0 km/h (0 Bft) O 84 0 min 0,000 mm 0,0 UV-I 0 W/m 4,5 C 5,7 C 0,0 km/h (0 Bft) 0,00 %
22.09.2015 03:35 5,5 C 93 % 1010,9 hPa 0,0 l/m 0,0 km/h (0 Bft) O 97 0 min 0,000 mm 0,0 UV-I 0 W/m 4,5 C 5,5 C 0,0 km/h (0 Bft) 0,00 %
22.09.2015 03:40 5,4 C 93 % 1011,1 hPa 0,0 l/m 0,0 km/h (0 Bft) O 91 0 min 0,000 mm 0,0 UV-I 0 W/m 4,4 C 5,4 C 0,0 km/h (0 Bft) 0,00 %
22.09.2015 03:45 5,4 C 94 % 1011,0 hPa 0,0 l/m 0,0 km/h (0 Bft) O 85 0 min 0,000 mm 0,0 UV-I 0 W/m 4,5 C 5,4 C 0,0 km/h (0 Bft) 0,00 %
22.09.2015 03:50 5,3 C 94 % 1010,8 hPa 0,0 l/m 0,0 km/h (0 Bft) O-NO 64 0 min 0,000 mm 0,0 UV-I 0 W/m 4,4 C 5,3 C 0,0 km/h (0 Bft) 0,00 %
22.09.2015 03:55 5,2 C 95 % 1010,9 hPa 0,0 l/m 0,0 km/h (0 Bft) O-NO 74 0 min 0,000 mm 0,0 UV-I 0 W/m 4,5 C 5,2 C 0,0 km/h (0 Bft) 0,00 %
22.09.2015 04:00 5,1 C 95 % 1010,8 hPa 0,0 l/m 0,0 km/h (0 Bft) O-NO 63 0 min 0,000 mm 0,0 UV-I 0 W/m 4,4 C 5,1 C 0,0 km/h (0 Bft) 0,00 %
22.09.2015 04:05 5,0 C 96 % 1010,9 hPa 0,0 l/m 0,0 km/h (0 Bft) O 86 0 min 0,000 mm 0,0 UV-I 0 W/m 4,4 C 5,0 C 0,0 km/h (0 Bft) 0,00 %
22.09.2015 04:10 5,0 C 95 % 1010,8 hPa 0,0 l/m 0,0 km/h (0 Bft) O-NO 72 0 min 0,000 mm 0,0 UV-I 0 W/m 4,3 C 5,0 C 0,0 km/h (0 Bft) 0,00 %
22.09.2015 04:15 4,9 C 97 % 1011,0 hPa 0,0 l/m 0,0 km/h (0 Bft) NO 37 0 min 0,000 mm 0,0 UV-I 0 W/m 4,5 C 4,9 C 0,0 km/h (0 Bft) 0,00 %
22.09.2015 04:20 4,9 C 97 % 1010,9 hPa 0,0 l/m 0,0 km/h (0 Bft) O-NO 77 0 min 0,000 mm 0,0 UV-I 0 W/m 4,5 C 4,9 C 0,0 km/h (0 Bft) 0,00 %
22.09.2015 04:25 4,9 C 96 % 1010,9 hPa 0,0 l/m 0,0 km/h (0 Bft) O-SO 108 0 min 0,000 mm 0,0 UV-I 0 W/m 4,3 C 4,9 C 0,0 km/h (0 Bft) 0,00 %
22.09.2015 04:30 4,9 C 97 % 1010,9 hPa 0,0 l/m 0,0 km/h (0 Bft) NO 49 0 min 0,000 mm 0,0 UV-I 0 W/m 4,5 C 4,9 C 0,0 km/h (0 Bft) 0,00 %
22.09.2015 04:35 4,9 C 97 % 1010,6 hPa 0,0 l/m 0,0 km/h (0 Bft) S-SW 201 0 min 0,000 mm 0,0 UV-I 0 W/m 4,5 C 4,9 C 0,0 km/h (0 Bft) 0,00 %
22.09.2015 04:40 5,0 C 97 % 1010,7 hPa 0,0 l/m 0,0 km/h (0 Bft) O 85 0 min 0,000 mm 0,0 UV-I 0 W/m 4,6 C 5,0 C 0,0 km/h (0 Bft) 0,00 %
22.09.2015 04:45 4,9 C 99 % 1010,8 hPa 0,0 l/m 0,0 km/h (0 Bft) O-NO 76 0 min 0,000 mm 0,0 UV-I 0 W/m 4,8 C 4,9 C 0,0 km/h (0 Bft) 0,00 %
22.09.2015 04:50 4,9 C 99 % 1010,9 hPa 0,0 l/m 0,0 km/h (0 Bft) O-SO 103 0 min 0,000 mm 0,0 UV-I 0 W/m 4,8 C 4,9 C 0,0 km/h (0 Bft) 0,00 %
22.09.2015 04:55 4,8 C 99 % 1010,8 hPa 0,0 l/m 0,0 km/h (0 Bft) O-NO 65 0 min 0,000 mm 0,0 UV-I 0 W/m 4,7 C 4,8 C 0,0 km/h (0 Bft) 0,00 %
22.09.2015 05:00 4,7 C 99 % 1010,8 hPa 0,0 l/m 0,0 km/h (0 Bft) O-NO 59 0 min 0,000 mm 0,0 UV-I 0 W/m 4,6 C 4,7 C 0,0 km/h (0 Bft) 0,00 %
22.09.2015 05:05 4,8 C 99 % 1010,8 hPa 0,0 l/m 0,0 km/h (0 Bft) O-NO 76 0 min 0,000 mm 0,0 UV-I 0 W/m 4,7 C 4,8 C 0,0 km/h (0 Bft) 0,00 %
22.09.2015 05:10 4,7 C 99 % 1010,7 hPa 0,0 l/m 0,0 km/h (0 Bft) O-SO 115 0 min 0,000 mm 0,0 UV-I 0 W/m 4,6 C 4,7 C 0,0 km/h (0 Bft) 0,00 %
22.09.2015 05:15 4,6 C 99 % 1011,0 hPa 0,0 l/m 0,0 km/h (0 Bft) O 87 0 min 0,000 mm 0,0 UV-I 0 W/m 4,5 C 4,6 C 0,0 km/h (0 Bft) 0,00 %
22.09.2015 05:20 4,6 C 99 % 1010,7 hPa 0,0 l/m 0,0 km/h (0 Bft) O-SO 107 0 min 0,000 mm 0,0 UV-I 0 W/m 4,5 C 4,6 C 0,0 km/h (0 Bft) 0,00 %
22.09.2015 05:25 4,6 C 99 % 1010,5 hPa 0,0 l/m 0,0 km/h (0 Bft) O-NO 65 0 min 0,000 mm 0,0 UV-I 0 W/m 4,5 C 4,6 C 0,0 km/h (0 Bft) 0,00 %
22.09.2015 05:30 4,6 C 99 % 1010,5 hPa 0,0 l/m 0,0 km/h (0 Bft) O-NO 61 0 min 0,000 mm 0,0 UV-I 0 W/m 4,5 C 4,6 C 0,0 km/h (0 Bft) 0,00 %
22.09.2015 05:35 4,5 C 99 % 1010,5 hPa 0,0 l/m 0,0 km/h (0 Bft) O 84 0 min 0,000 mm 0,0 UV-I 0 W/m 4,4 C 4,5 C 0,0 km/h (0 Bft) 0,00 %
22.09.2015 05:40 4,3 C 99 % 1010,6 hPa 0,0 l/m 0,0 km/h (0 Bft) O 90 0 min 0,000 mm 0,0 UV-I 0 W/m 4,2 C 4,3 C 0,0 km/h (0 Bft) 0,00 %
22.09.2015 05:45 4,2 C 99 % 1010,6 hPa 0,0 l/m 0,0 km/h (0 Bft) O-NO 62 0 min 0,000 mm 0,0 UV-I 0 W/m 4,1 C 4,2 C 0,0 km/h (0 Bft) 0,00 %
22.09.2015 05:50 4,1 C 99 % 1010,5 hPa 0,0 l/m 0,0 km/h (0 Bft) O-NO 77 0 min 0,000 mm 0,0 UV-I 0 W/m 4,0 C 4,1 C 0,0 km/h (0 Bft) 0,00 %
22.09.2015 05:55 4,0 C 99 % 1010,5 hPa 0,0 l/m 0,0 km/h (0 Bft) O 96 0 min 0,000 mm 0,0 UV-I 0 W/m 3,9 C 4,0 C 0,0 km/h (0 Bft) 0,00 %
22.09.2015 06:00 4,0 C 99 % 1010,5 hPa 0,0 l/m 0,0 km/h (0 Bft) O-SO 120 0 min 0,000 mm 0,0 UV-I 0 W/m 3,9 C 4,0 C 0,0 km/h (0 Bft) 0,00 %
22.09.2015 06:05 4,1 C 99 % 1010,5 hPa 0,0 l/m 0,0 km/h (0 Bft) O 83 0 min 0,000 mm 0,0 UV-I 0 W/m 4,0 C 4,1 C 0,0 km/h (0 Bft) 0,00 %
22.09.2015 06:10 4,1 C 99 % 1010,5 hPa 0,0 l/m 0,0 km/h (0 Bft) O-NO 67 0 min 0,000 mm 0,0 UV-I 0 W/m 4,0 C 4,1 C 0,0 km/h (0 Bft) 0,00 %
22.09.2015 06:15 4,1 C 99 % 1010,6 hPa 0,0 l/m 0,0 km/h (0 Bft) O 86 0 min 0,000 mm 0,0 UV-I 0 W/m 4,0 C 4,1 C 0,0 km/h (0 Bft) 0,00 %
22.09.2015 06:20 4,1 C 99 % 1010,5 hPa 0,0 l/m 0,0 km/h (0 Bft) O 79 0 min 0,000 mm 0,0 UV-I 0 W/m 4,0 C 4,1 C 0,0 km/h (0 Bft) 0,00 %
22.09.2015 06:25 4,0 C 99 % 1010,5 hPa 0,0 l/m 0,0 km/h (0 Bft) S-SO 148 0 min 0,000 mm 0,0 UV-I 0 W/m 3,9 C 4,0 C 0,0 km/h (0 Bft) 0,00 %
22.09.2015 06:30 4,0 C 99 % 1010,4 hPa 0,0 l/m 0,0 km/h (0 Bft) O-NO 72 0 min 0,000 mm 0,0 UV-I 0 W/m 3,9 C 4,0 C 0,0 km/h (0 Bft) 0,00 %
22.09.2015 06:35 4,1 C 99 % 1010,5 hPa 0,0 l/m 0,0 km/h (0 Bft) O-NO 72 0 min 0,000 mm 0,0 UV-I 0 W/m 4,0 C 4,1 C 0,0 km/h (0 Bft) 0,00 %
22.09.2015 06:40 4,1 C 99 % 1010,4 hPa 0,0 l/m 0,0 km/h (0 Bft) O-NO 66 0 min 0,000 mm 0,0 UV-I 0 W/m 4,0 C 4,1 C 0,0 km/h (0 Bft) 0,00 %
22.09.2015 06:45 4,1 C 99 % 1010,7 hPa 0,0 l/m 0,0 km/h (0 Bft) O-NO 76 0 min 0,000 mm 0,0 UV-I 0 W/m 4,0 C 4,1 C 0,0 km/h (0 Bft) 0,00 %
22.09.2015 06:50 4,1 C 99 % 1010,7 hPa 0,0 l/m 0,0 km/h (0 Bft) O 86 0 min 0,000 mm 0,0 UV-I 1 W/m 4,0 C 4,1 C 0,0 km/h (0 Bft) 0,00 %
22.09.2015 06:55 4,1 C 99 % 1010,7 hPa 0,0 l/m 0,0 km/h (0 Bft) O-NO 66 0 min 0,000 mm 0,0 UV-I 6 W/m 4,0 C 4,1 C 0,0 km/h (0 Bft) 0,00 %
22.09.2015 07:00 4,1 C 99 % 1010,6 hPa 0,0 l/m 0,0 km/h (0 Bft) O-NO 62 5 min 0,000 mm 0,0 UV-I 12 W/m 4,0 C 4,1 C 0,0 km/h (0 Bft) 0,00 %
22.09.2015 07:05 4,1 C 99 % 1010,6 hPa 0,0 l/m 0,0 km/h (0 Bft) O-NO 60 5 min 0,000 mm 0,0 UV-I 22 W/m 4,0 C 4,1 C 0,0 km/h (0 Bft) 0,00 %
22.09.2015 07:10 4,1 C 99 % 1010,7 hPa 0,0 l/m 0,0 km/h (0 Bft) O-NO 61 5 min 0,000 mm 0,0 UV-I 29 W/m 4,0 C 4,1 C 0,0 km/h (0 Bft) 0,00 %
22.09.2015 07:15 4,1 C 99 % 1010,7 hPa 0,0 l/m 0,0 km/h (0 Bft) O-NO 63 5 min 0,000 mm 0,0 UV-I 87 W/m 4,0 C 4,1 C 0,0 km/h (0 Bft) 0,00 %
22.09.2015 07:20 4,2 C 99 % 1010,5 hPa 0,0 l/m 0,0 km/h (0 Bft) O-NO 69 5 min 0,000 mm 0,0 UV-I 45 W/m 4,1 C 4,2 C 0,0 km/h (0 Bft) 0,00 %
22.09.2015 07:25 4,6 C 98 % 1010,6 hPa 0,0 l/m 0,0 km/h (0 Bft) O-NO 70 5 min 0,000 mm 0,0 UV-I 97 W/m 4,3 C 4,6 C 0,0 km/h (0 Bft) 0,00 %
22.09.2015 07:30 5,0 C 98 % 1010,4 hPa 0,0 l/m 0,0 km/h (0 Bft) O-NO 64 5 min 0,000 mm 0,0 UV-I 105 W/m 4,7 C 5,0 C 0,0 km/h (0 Bft) 0,00 %
22.09.2015 07:35 5,4 C 97 % 1010,5 hPa 0,0 l/m 0,0 km/h (0 Bft) O-NO 64 5 min 0,000 mm 0,0 UV-I 108 W/m 5,0 C 5,4 C 0,0 km/h (0 Bft) 0,00 %
22.09.2015 07:40 5,9 C 97 % 1010,5 hPa 0,0 l/m 0,0 km/h (0 Bft) O-NO 61 5 min 0,000 mm 0,0 UV-I 120 W/m 5,5 C 5,9 C 0,0 km/h (0 Bft) 0,00 %
22.09.2015 07:45 6,3 C 97 % 1010,3 hPa 0,0 l/m 0,0 km/h (0 Bft) O-NO 72 5 min 0,000 mm 0,0 UV-I 127 W/m 5,9 C 6,3 C 0,0 km/h (0 Bft) 0,00 %
22.09.2015 07:50 6,6 C 97 % 1010,3 hPa 0,0 l/m 0,0 km/h (0 Bft) O-NO 72 5 min 0,000 mm 0,0 UV-I 131 W/m 6,2 C 6,6 C 0,0 km/h (0 Bft) 0,00 %
22.09.2015 07:55 6,8 C 99 % 1010,4 hPa 0,0 l/m 0,0 km/h (0 Bft) O-NO 63 5 min 0,000 mm 0,0 UV-I 139 W/m 6,7 C 6,8 C 0,0 km/h (0 Bft) 0,00 %
22.09.2015 08:00 7,0 C 98 % 1010,4 hPa 0,0 l/m 0,0 km/h (0 Bft) O-NO 66 5 min 0,000 mm 0,0 UV-I 134 W/m 6,7 C 7,0 C 0,0 km/h (0 Bft) 0,00 %
22.09.2015 08:05 7,2 C 97 % 1010,1 hPa 0,0 l/m 0,0 km/h (0 Bft) O-NO 60 5 min 0,000 mm 1,0 UV-I 140 W/m 6,8 C 7,2 C 0,0 km/h (0 Bft) 0,00 %
22.09.2015 08:10 7,3 C 96 % 1010,5 hPa 0,0 l/m 0,0 km/h (0 Bft) NO 56 5 min 0,000 mm 1,0 UV-I 140 W/m 6,7 C 7,3 C 0,0 km/h (0 Bft) 0,00 %
22.09.2015 08:15 7,2 C 95 % 1010,4 hPa 0,0 l/m 0,0 km/h (0 Bft) O-NO 61 5 min 0,000 mm 1,0 UV-I 138 W/m 6,5 C 7,2 C 0,0 km/h (0 Bft) 0,00 %
22.09.2015 08:20 7,2 C 94 % 1010,1 hPa 0,0 l/m 0,0 km/h (0 Bft) O-NO 76 0 min 0,000 mm 1,0 UV-I 133 W/m 6,3 C 7,2 C 0,0 km/h (0 Bft) 0,00 %
22.09.2015 08:25 7,3 C 94 % 1010,1 hPa 0,0 l/m 0,0 km/h (0 Bft) O-NO 66 0 min 0,000 mm 1,0 UV-I 141 W/m 6,4 C 7,3 C 0,0 km/h (0 Bft) 0,00 %
22.09.2015 08:30 7,5 C 94 % 1009,5 hPa 0,0 l/m 0,0 km/h (0 Bft) O-NO 62 5 min 0,000 mm 1,0 UV-I 156 W/m 6,6 C 7,5 C 0,0 km/h (0 Bft) 0,00 %
22.09.2015 08:35 7,9 C 92 % 1009,6 hPa 0,0 l/m 0,0 km/h (0 Bft) NO 53 5 min 0,000 mm 1,0 UV-I 157 W/m 6,7 C 7,9 C 0,0 km/h (0 Bft) 0,00 %
22.09.2015 08:40 8,3 C 90 % 1009,7 hPa 0,0 l/m 0,0 km/h (0 Bft) O 92 0 min 0,000 mm 1,0 UV-I 154 W/m 6,8 C 8,3 C 0,0 km/h (0 Bft) 0,00 %
22.09.2015 08:45 8,7 C 86 % 1009,5 hPa 0,0 l/m 0,0 km/h (0 Bft) O-NO 68 0 min 0,000 mm 1,0 UV-I 158 W/m 6,5 C 8,7 C 0,0 km/h (0 Bft) 0,00 %
22.09.2015 08:50 9,3 C 82 % 1009,4 hPa 0,0 l/m 0,0 km/h (0 Bft) O-NO 69 0 min 0,000 mm 1,0 UV-I 151 W/m 6,4 C 9,3 C 0,0 km/h (0 Bft) 0,00 %
22.09.2015 08:55 9,9 C 79 % 1009,2 hPa 0,0 l/m 0,0 km/h (0 Bft) O-NO 57 0 min 0,000 mm 1,0 UV-I 161 W/m 6,4 C 9,9 C 0,0 km/h (0 Bft) 0,00 %
22.09.2015 09:00 10,3 C 75 % 1009,4 hPa 0,0 l/m 0,0 km/h (0 Bft) SO 131 0 min 0,000 mm 1,0 UV-I 159 W/m 6,1 C 10,3 C 0,0 km/h (0 Bft) 0,00 %
22.09.2015 09:05 10,8 C 72 % 1009,4 hPa 0,0 l/m 0,0 km/h (0 Bft) NO 56 0 min 0,000 mm 1,0 UV-I 162 W/m 6,0 C 10,8 C 0,0 km/h (0 Bft) 0,00 %
22.09.2015 09:10 10,9 C 71 % 1009,4 hPa 0,0 l/m 0,0 km/h (0 Bft) O 98 0 min 0,000 mm 1,0 UV-I 170 W/m 5,9 C 10,9 C 0,0 km/h (0 Bft) 0,00 %
22.09.2015 09:15 11,7 C 70 % 1009,3 hPa 0,0 l/m 0,0 km/h (0 Bft) O 95 0 min 0,000 mm 1,0 UV-I 162 W/m 6,4 C 11,7 C 0,0 km/h (0 Bft) 0,00 %
22.09.2015 09:20 11,7 C 69 % 1009,4 hPa 0,0 l/m 0,0 km/h (0 Bft) O 90 0 min 0,000 mm 1,0 UV-I 161 W/m 6,2 C 11,7 C 0,0 km/h (0 Bft) 0,00 %
22.09.2015 09:25 11,7 C 70 % 1009,2 hPa 0,0 l/m 0,0 km/h (0 Bft) NO 53 0 min 0,000 mm 1,0 UV-I 175 W/m 6,4 C 11,7 C 0,0 km/h (0 Bft) 0,00 %
22.09.2015 09:30 11,8 C 70 % 1009,2 hPa 0,0 l/m 0,0 km/h (0 Bft) NO 53 0 min 0,000 mm 1,0 UV-I 185 W/m 6,5 C 11,8 C 0,0 km/h (0 Bft) 0,00 %
22.09.2015 09:35 11,8 C 71 % 1009,1 hPa 0,0 l/m 0,0 km/h (0 Bft) O 97 0 min 0,000 mm 1,0 UV-I 206 W/m 6,7 C 11,8 C 0,0 km/h (0 Bft) 0,00 %
22.09.2015 09:40 11,9 C 70 % 1008,9 hPa 0,0 l/m 0,0 km/h (0 Bft) O-NO 62 0 min 0,000 mm 1,0 UV-I 205 W/m 6,6 C 11,9 C 0,0 km/h (0 Bft) 0,00 %
22.09.2015 09:45 12,1 C 70 % 1009,0 hPa 0,0 l/m 0,0 km/h (0 Bft) O-NO 62 0 min 0,000 mm 1,0 UV-I 216 W/m 6,8 C 12,1 C 0,0 km/h (0 Bft) 0,00 %
22.09.2015 09:50 11,9 C 73 % 1009,1 hPa 0,0 l/m 0,0 km/h (0 Bft) NO 44 0 min 0,000 mm 1,0 UV-I 222 W/m 7,2 C 11,9 C 0,0 km/h (0 Bft) 0,00 %
22.09.2015 09:55 11,5 C 75 % 1008,9 hPa 0,0 l/m 0,0 km/h (0 Bft) O-NO 65 0 min 0,000 mm 1,0 UV-I 233 W/m 7,2 C 11,5 C 0,0 km/h (0 Bft) 0,00 %
22.09.2015 10:00 11,3 C 74 % 1008,9 hPa 0,0 l/m 0,0 km/h (0 Bft) O-NO 65 0 min 0,000 mm 1,0 UV-I 251 W/m 6,8 C 11,3 C 0,0 km/h (0 Bft) 0,00 %
22.09.2015 10:05 11,5 C 74 % 1009,1 hPa 0,0 l/m 0,0 km/h (0 Bft) O-NO 57 0 min 0,000 mm 1,0 UV-I 260 W/m 7,0 C 11,5 C 0,0 km/h (0 Bft) 0,00 %
22.09.2015 10:10 11,7 C 72 % 1009,0 hPa 0,0 l/m 0,0 km/h (0 Bft) NO 48 0 min 0,000 mm 1,0 UV-I 276 W/m 6,8 C 11,7 C 0,0 km/h (0 Bft) 0,00 %
22.09.2015 10:15 11,9 C 73 % 1009,0 hPa 0,0 l/m 0,0 km/h (0 Bft) O-NO 62 0 min 0,000 mm 1,0 UV-I 277 W/m 7,2 C 11,9 C 0,0 km/h (0 Bft) 0,00 %
22.09.2015 10:20 12,0 C 72 % 1008,9 hPa 0,0 l/m 0,0 km/h (0 Bft) NO 39 5 min 0,000 mm 1,0 UV-I 290 W/m 7,1 C 12,0 C 0,0 km/h (0 Bft) 0,00 %
22.09.2015 10:29 13,1 C 67 % 1008,8 hPa 0,0 l/m 0,0 km/h (0 Bft) O-NO 63 0 min 0,000 mm 2,0 UV-I 270 W/m 7,1 C 13,1 C 0,0 km/h (0 Bft) 0,00 %
22.09.2015 10:34 13,2 C 67 % 1008,9 hPa 0,0 l/m 0,0 km/h (0 Bft) O 93 0 min 0,000 mm 2,0 UV-I 275 W/m 7,2 C 13,2 C 0,0 km/h (0 Bft) 0,00 %
22.09.2015 10:39 13,5 C 64 % 1008,8 hPa 0,0 l/m 0,0 km/h (0 Bft) NO 43 0 min 0,000 mm 2,0 UV-I 287 W/m 6,8 C 13,5 C 0,0 km/h (0 Bft) 0,00 %
22.09.2015 10:44 13,8 C 66 % 1008,9 hPa 0,0 l/m 0,0 km/h (0 Bft) NO 36 5 min 0,000 mm 2,0 UV-I 314 W/m 7,6 C 13,8 C 0,0 km/h (0 Bft) 0,00 %
22.09.2015 10:49 13,9 C 64 % 1008,9 hPa 0,0 l/m 0,0 km/h (0 Bft) O-NO 61 5 min 0,000 mm 2,0 UV-I 326 W/m 7,2 C 13,9 C 0,0 km/h (0 Bft) 0,00 %
22.09.2015 10:54 13,7 C 66 % 1008,8 hPa 0,0 l/m 1,4 km/h (1 Bft) O-SO 117 5 min 0,000 mm 2,0 UV-I 338 W/m 7,5 C 13,7 C 4,0 km/h (1 Bft) 0,00 %
22.09.2015 10:59 13,7 C 64 % 1008,7 hPa 0,0 l/m 0,0 km/h (0 Bft) N-NO 16 5 min 0,000 mm 2,0 UV-I 350 W/m 7,0 C 13,7 C 0,0 km/h (0 Bft) 0,00 %
22.09.2015 11:04 14,0 C 64 % 1008,8 hPa 0,0 l/m 3,2 km/h (1 Bft) O-NO 62 5 min 0,000 mm 2,0 UV-I 366 W/m 7,3 C 14,0 C 4,0 km/h (1 Bft) 0,00 %
22.09.2015 11:09 14,2 C 63 % 1008,7 hPa 0,0 l/m 0,0 km/h (0 Bft) O 85 5 min 0,000 mm 2,0 UV-I 352 W/m 7,3 C 14,2 C 0,0 km/h (0 Bft) 0,00 %
22.09.2015 11:14 14,4 C 63 % 1008,8 hPa 0,0 l/m 0,0 km/h (0 Bft) O-NO 78 5 min 0,000 mm 2,0 UV-I 396 W/m 7,4 C 14,4 C 0,0 km/h (0 Bft) 0,00 %
22.09.2015 11:19 14,7 C 63 % 1008,6 hPa 0,0 l/m 0,4 km/h (0 Bft) NO 53 5 min 0,000 mm 2,0 UV-I 422 W/m 7,7 C 14,7 C 4,0 km/h (1 Bft) 0,00 %
22.09.2015 11:24 14,7 C 64 % 1008,6 hPa 0,0 l/m 0,0 km/h (0 Bft) N-NO 29 5 min 0,000 mm 2,0 UV-I 432 W/m 8,0 C 14,7 C 0,0 km/h (0 Bft) 0,00 %
22.09.2015 11:29 14,4 C 65 % 1008,6 hPa 0,0 l/m 0,0 km/h (0 Bft) O-NO 67 5 min 0,000 mm 2,0 UV-I 443 W/m 7,9 C 14,4 C 0,0 km/h (0 Bft) 0,00 %
22.09.2015 11:34 14,4 C 63 % 1008,6 hPa 0,0 l/m 0,0 km/h (0 Bft) NO 49 5 min 0,000 mm 2,0 UV-I 462 W/m 7,4 C 14,4 C 0,0 km/h (0 Bft) 0,00 %
22.09.2015 11:39 14,4 C 62 % 1008,5 hPa 0,0 l/m 0,0 km/h (0 Bft) O-NO 62 5 min 0,000 mm 2,0 UV-I 470 W/m 7,2 C 14,4 C 0,0 km/h (0 Bft) 0,00 %
22.09.2015 11:44 14,7 C 62 % 1008,5 hPa 0,0 l/m 0,0 km/h (0 Bft) O-NO 58 5 min 0,000 mm 2,0 UV-I 502 W/m 7,5 C 14,7 C 0,0 km/h (0 Bft) 0,00 %
22.09.2015 11:49 15,2 C 61 % 1008,4 hPa 0,0 l/m 0,0 km/h (0 Bft) O-NO 65 5 min 0,000 mm 2,0 UV-I 510 W/m 7,7 C 15,2 C 0,0 km/h (0 Bft) 0,00 %
22.09.2015 11:54 15,3 C 62 % 1008,3 hPa 0,0 l/m 0,0 km/h (0 Bft) NO 52 5 min 0,000 mm 2,0 UV-I 534 W/m 8,1 C 15,3 C 0,0 km/h (0 Bft) 0,00 %
22.09.2015 11:59 15,2 C 61 % 1008,2 hPa 0,0 l/m 4,3 km/h (1 Bft) O 93 5 min 0,000 mm 2,0 UV-I 560 W/m 7,7 C 15,2 C 7,9 km/h (2 Bft) 0,00 %
22.09.2015 12:04 15,5 C 60 % 1008,3 hPa 0,0 l/m 0,0 km/h (0 Bft) N-NO 25 5 min 0,000 mm 2,0 UV-I 587 W/m 7,8 C 15,5 C 0,0 km/h (0 Bft) 0,00 %
22.09.2015 12:09 15,8 C 60 % 1008,3 hPa 0,0 l/m 6,8 km/h (2 Bft) O 79 5 min 0,000 mm 2,0 UV-I 582 W/m 8,1 C 15,6 C 7,9 km/h (2 Bft) 0,00 %
22.09.2015 12:14 15,8 C 59 % 1007,8 hPa 0,0 l/m 0,4 km/h (0 Bft) N-NO 30 5 min 0,000 mm 2,0 UV-I 615 W/m 7,8 C 15,8 C 4,0 km/h (1 Bft) 0,00 %
22.09.2015 12:19 15,9 C 58 % 1007,8 hPa 0,0 l/m 3,2 km/h (1 Bft) O-NO 62 5 min 0,000 mm 2,0 UV-I 605 W/m 7,6 C 15,9 C 4,0 km/h (1 Bft) 0,00 %
22.09.2015 12:24 16,2 C 57 % 1007,6 hPa 0,0 l/m 0,4 km/h (0 Bft) NO 44 5 min 0,000 mm 2,0 UV-I 702 W/m 7,7 C 16,2 C 4,0 km/h (1 Bft) 0,00 %
22.09.2015 12:29 16,3 C 58 % 1007,8 hPa 0,0 l/m 0,0 km/h (0 Bft) N-NO 21 5 min 0,000 mm 2,0 UV-I 630 W/m 8,0 C 16,3 C 0,0 km/h (0 Bft) 0,00 %
22.09.2015 12:34 16,2 C 58 % 1007,8 hPa 0,0 l/m 0,0 km/h (0 Bft) NO 41 5 min 0,000 mm 2,0 UV-I 608 W/m 7,9 C 16,2 C 0,0 km/h (0 Bft) 0,00 %
22.09.2015 12:39 16,4 C 56 % 1007,8 hPa 0,0 l/m 0,0 km/h (0 Bft) O-NO 65 5 min 0,000 mm 3,0 UV-I 740 W/m 7,6 C 16,4 C 0,0 km/h (0 Bft) 0,00 %
22.09.2015 12:44 16,7 C 55 % 1007,7 hPa 0,0 l/m 0,7 km/h (0 Bft) O-NO 65 5 min 0,000 mm 2,0 UV-I 580 W/m 7,6 C 16,7 C 4,0 km/h (1 Bft) 0,00 %
22.09.2015 12:49 16,9 C 54 % 1007,5 hPa 0,0 l/m 0,0 km/h (0 Bft) O-NO 60 5 min 0,000 mm 2,0 UV-I 626 W/m 7,5 C 16,9 C 0,0 km/h (0 Bft) 0,00 %
22.09.2015 12:54 16,8 C 56 % 1007,5 hPa 0,0 l/m 0,0 km/h (0 Bft) NO 56 5 min 0,000 mm 3,0 UV-I 706 W/m 8,0 C 16,8 C 0,0 km/h (0 Bft) 0,00 %
22.09.2015 12:59 16,7 C 56 % 1007,2 hPa 0,0 l/m 0,0 km/h (0 Bft) O-NO 72 5 min 0,000 mm 3,0 UV-I 749 W/m 7,9 C 16,7 C 0,0 km/h (0 Bft) 0,00 %
22.09.2015 13:04 16,9 C 54 % 1007,1 hPa 0,0 l/m 0,0 km/h (0 Bft) O-NO 70 5 min 0,000 mm 3,0 UV-I 761 W/m 7,5 C 16,9 C 0,0 km/h (0 Bft) 0,00 %
22.09.2015 13:09 17,5 C 52 % 1007,0 hPa 0,0 l/m 0,4 km/h (0 Bft) O-NO 76 5 min 0,000 mm 3,0 UV-I 786 W/m 7,5 C 17,5 C 4,0 km/h (1 Bft) 0,00 %
22.09.2015 13:14 18,1 C 52 % 1007,0 hPa 0,0 l/m 0,0 km/h (0 Bft) O 95 5 min 0,000 mm 3,0 UV-I 798 W/m 8,1 C 18,1 C 0,0 km/h (0 Bft) 0,00 %
22.09.2015 13:19 18,4 C 52 % 1007,1 hPa 0,0 l/m 0,0 km/h (0 Bft) O-NO 63 5 min 0,000 mm 3,0 UV-I 799 W/m 8,4 C 18,4 C 0,0 km/h (0 Bft) 0,00 %
22.09.2015 13:24 18,2 C 54 % 1006,8 hPa 0,0 l/m 4,3 km/h (1 Bft) NO 37 5 min 0,000 mm 3,0 UV-I 860 W/m 8,7 C 18,2 C 7,9 km/h (2 Bft) 0,00 %
22.09.2015 13:29 17,8 C 52 % 1006,9 hPa 0,0 l/m 5,8 km/h (2 Bft) N-NW 343 5 min 0,000 mm 3,0 UV-I 790 W/m 7,8 C 17,8 C 11,9 km/h (2 Bft) 0,00 %
22.09.2015 13:34 17,9 C 52 % 1007,1 hPa 0,0 l/m 0,0 km/h (0 Bft) N 354 5 min 0,000 mm 2,0 UV-I 558 W/m 7,9 C 17,9 C 0,0 km/h (0 Bft) 0,00 %
22.09.2015 13:39 18,0 C 51 % 1006,7 hPa 0,0 l/m 2,9 km/h (1 Bft) NO 51 5 min 0,000 mm 3,0 UV-I 898 W/m 7,7 C 18,0 C 7,9 km/h (2 Bft) 0,00 %
22.09.2015 13:44 18,3 C 51 % 1006,7 hPa 0,0 l/m 0,4 km/h (0 Bft) O 96 5 min 0,000 mm 2,0 UV-I 720 W/m 8,0 C 18,3 C 4,0 km/h (1 Bft) 0,00 %
22.09.2015 13:49 18,7 C 51 % 1006,6 hPa 0,0 l/m 0,0 km/h (0 Bft) O-NO 76 5 min 0,000 mm 2,0 UV-I 791 W/m 8,4 C 18,7 C 0,0 km/h (0 Bft) 0,00 %
22.09.2015 13:54 18,7 C 51 % 1006,5 hPa 0,0 l/m 0,0 km/h (0 Bft) O-NO 60 5 min 0,000 mm 2,0 UV-I 790 W/m 8,4 C 18,7 C 0,0 km/h (0 Bft) 0,00 %
22.09.2015 13:59 18,5 C 52 % 1006,9 hPa 0,0 l/m 0,4 km/h (0 Bft) N 358 5 min 0,000 mm 2,0 UV-I 639 W/m 8,5 C 18,5 C 4,0 km/h (1 Bft) 0,00 %
22.09.2015 14:04 18,4 C 51 % 1006,3 hPa 0,0 l/m 0,0 km/h (0 Bft) NO 41 5 min 0,000 mm 1,0 UV-I 720 W/m 8,1 C 18,4 C 0,0 km/h (0 Bft) 0,00 %
22.09.2015 14:09 18,5 C 51 % 1006,4 hPa 0,0 l/m 8,3 km/h (2 Bft) N-NO 29 5 min 0,000 mm 1,0 UV-I 810 W/m 8,2 C 17,6 C 11,9 km/h (2 Bft) 0,00 %
22.09.2015 14:14 18,6 C 51 % 1006,1 hPa 0,0 l/m 1,8 km/h (1 Bft) NO 42 5 min 0,000 mm 1,0 UV-I 778 W/m 8,3 C 18,6 C 4,0 km/h (1 Bft) 0,00 %
22.09.2015 14:19 18,6 C 50 % 1006,1 hPa 0,0 l/m 4,0 km/h (1 Bft) N 353 5 min 0,000 mm 1,0 UV-I 852 W/m 8,0 C 18,6 C 7,9 km/h (2 Bft) 0,00 %
22.09.2015 14:24 18,6 C 50 % 1006,3 hPa 0,0 l/m 0,4 km/h (0 Bft) NO 49 5 min 0,000 mm 1,0 UV-I 857 W/m 8,0 C 18,6 C 4,0 km/h (1 Bft) 0,00 %
22.09.2015 14:29 18,6 C 50 % 1006,2 hPa 0,0 l/m 3,2 km/h (1 Bft) O-NO 71 5 min 0,000 mm 1,0 UV-I 707 W/m 8,0 C 18,6 C 4,0 km/h (1 Bft) 0,00 %
22.09.2015 14:34 18,7 C 49 % 1006,2 hPa 0,0 l/m 0,0 km/h (0 Bft) NO 49 5 min 0,000 mm 1,0 UV-I 645 W/m 7,8 C 18,7 C 0,0 km/h (0 Bft) 0,00 %
22.09.2015 14:39 18,6 C 50 % 1006,1 hPa 0,0 l/m 0,0 km/h (0 Bft) NO 41 5 min 0,000 mm 1,0 UV-I 340 W/m 8,0 C 18,6 C 0,0 km/h (0 Bft) 0,00 %
22.09.2015 14:44 18,4 C 51 % 1006,1 hPa 0,0 l/m 0,0 km/h (0 Bft) O-NO 57 5 min 0,000 mm 1,0 UV-I 476 W/m 8,1 C 18,4 C 0,0 km/h (0 Bft) 0,00 %
22.09.2015 14:49 18,4 C 51 % 1006,0 hPa 0,0 l/m 0,0 km/h (0 Bft) O-NO 74 5 min 0,000 mm 1,0 UV-I 334 W/m 8,1 C 18,4 C 0,0 km/h (0 Bft) 0,00 %
22.09.2015 14:54 18,3 C 52 % 1005,7 hPa 0,0 l/m 0,0 km/h (0 Bft) N 357 5 min 0,000 mm 1,0 UV-I 513 W/m 8,3 C 18,3 C 0,0 km/h (0 Bft) 0,00 %
22.09.2015 14:59 18,2 C 51 % 1005,9 hPa 0,0 l/m 0,0 km/h (0 Bft) O-NO 62 5 min 0,000 mm 2,0 UV-I 441 W/m 7,9 C 18,2 C 0,0 km/h (0 Bft) 0,00 %
22.09.2015 15:04 18,5 C 51 % 1005,7 hPa 0,0 l/m 0,0 km/h (0 Bft) NO 38 5 min 0,000 mm 1,0 UV-I 507 W/m 8,2 C 18,5 C 0,0 km/h (0 Bft) 0,00 %
22.09.2015 15:09 18,6 C 51 % 1005,7 hPa 0,0 l/m 0,0 km/h (0 Bft) N-NO 32 5 min 0,000 mm 1,0 UV-I 484 W/m 8,3 C 18,6 C 0,0 km/h (0 Bft) 0,00 %
22.09.2015 15:14 18,5 C 51 % 1005,6 hPa 0,0 l/m 0,0 km/h (0 Bft) N 350 5 min 0,000 mm 1,0 UV-I 392 W/m 8,2 C 18,5 C 0,0 km/h (0 Bft) 0,00 %
22.09.2015 15:19 18,4 C 52 % 1005,6 hPa 0,0 l/m 3,2 km/h (1 Bft) N-NO 24 5 min 0,000 mm 2,0 UV-I 448 W/m 8,4 C 18,4 C 4,0 km/h (1 Bft) 0,00 %
22.09.2015 15:24 18,3 C 51 % 1005,4 hPa 0,0 l/m 0,0 km/h (0 Bft) O-NO 68 5 min 0,000 mm 2,0 UV-I 484 W/m 8,0 C 18,3 C 0,0 km/h (0 Bft) 0,00 %
22.09.2015 15:29 18,5 C 50 % 1005,4 hPa 0,0 l/m 2,2 km/h (1 Bft) NW 319 5 min 0,000 mm 1,0 UV-I 403 W/m 7,9 C 18,5 C 7,9 km/h (2 Bft) 0,00 %
22.09.2015 15:34 18,5 C 49 % 1005,5 hPa 0,0 l/m 1,4 km/h (1 Bft) N-NW 339 5 min 0,000 mm 1,0 UV-I 360 W/m 7,6 C 18,5 C 7,9 km/h (2 Bft) 0,00 %
22.09.2015 15:39 18,5 C 51 % 1005,3 hPa 0,0 l/m 0,0 km/h (0 Bft) NO 43 5 min 0,000 mm 1,0 UV-I 373 W/m 8,2 C 18,5 C 0,0 km/h (0 Bft) 0,00 %
22.09.2015 15:44 18,4 C 49 % 1005,3 hPa 0,0 l/m 0,0 km/h (0 Bft) NO 52 5 min 0,000 mm 1,0 UV-I 423 W/m 7,5 C 18,4 C 0,0 km/h (0 Bft) 0,00 %
22.09.2015 15:49 18,5 C 48 % 1005,5 hPa 0,0 l/m 0,0 km/h (0 Bft) NO 43 5 min 0,000 mm 1,0 UV-I 401 W/m 7,3 C 18,5 C 0,0 km/h (0 Bft) 0,00 %
22.09.2015 15:54 18,7 C 49 % 1005,4 hPa 0,0 l/m 0,0 km/h (0 Bft) NO 37 5 min 0,000 mm 1,0 UV-I 353 W/m 7,8 C 18,7 C 0,0 km/h (0 Bft) 0,00 %
22.09.2015 15:59 18,8 C 50 % 1005,3 hPa 0,0 l/m 0,0 km/h (0 Bft) NO 55 5 min 0,000 mm 1,0 UV-I 373 W/m 8,2 C 18,8 C 0,0 km/h (0 Bft) 0,00 %
22.09.2015 16:05 18,8 C 47 % 1005,3 hPa 0,0 l/m 0,0 km/h (0 Bft) O-NO 71 6 min 0,000 mm 1,0 UV-I 363 W/m 7,2 C 18,8 C 0,0 km/h (0 Bft) 0,00 %
22.09.2015 16:10 18,8 C 48 % 1005,2 hPa 0,0 l/m 0,0 km/h (0 Bft) NO 53 5 min 0,000 mm 1,0 UV-I 392 W/m 7,6 C 18,8 C 0,0 km/h (0 Bft) 0,00 %
22.09.2015 16:15 18,8 C 47 % 1004,8 hPa 0,0 l/m 4,3 km/h (1 Bft) N-NW 336 5 min 0,000 mm 1,0 UV-I 864 W/m 7,2 C 18,8 C 7,9 km/h (2 Bft) 0,00 %
22.09.2015 16:20 18,9 C 46 % 1004,8 hPa 0,0 l/m 0,0 km/h (0 Bft) NO 38 5 min 0,000 mm 1,0 UV-I 522 W/m 7,0 C 18,9 C 0,0 km/h (0 Bft) 0,00 %
22.09.2015 16:25 19,0 C 44 % 1004,9 hPa 0,0 l/m 0,0 km/h (0 Bft) NO 51 5 min 0,000 mm 1,0 UV-I 529 W/m 6,5 C 19,0 C 0,0 km/h (0 Bft) 0,00 %
22.09.2015 16:30 19,1 C 46 % 1004,9 hPa 0,0 l/m 0,0 km/h (0 Bft) NO 48 5 min 0,000 mm 1,0 UV-I 322 W/m 7,2 C 19,1 C 0,0 km/h (0 Bft) 0,00 %
22.09.2015 16:35 19,0 C 47 % 1005,0 hPa 0,0 l/m 4,7 km/h (1 Bft) O 92 5 min 0,000 mm 1,0 UV-I 405 W/m 7,4 C 19,0 C 7,9 km/h (2 Bft) 0,00 %
22.09.2015 16:40 18,7 C 50 % 1004,8 hPa 0,0 l/m 0,4 km/h (0 Bft) N 352 5 min 0,000 mm 1,0 UV-I 465 W/m 8,1 C 18,7 C 4,0 km/h (1 Bft) 0,00 %
22.09.2015 16:45 18,7 C 47 % 1005,0 hPa 0,0 l/m 0,0 km/h (0 Bft) NO 37 5 min 0,000 mm 1,0 UV-I 294 W/m 7,2 C 18,7 C 0,0 km/h (0 Bft) 0,00 %
22.09.2015 16:50 18,7 C 47 % 1005,1 hPa 0,0 l/m 0,0 km/h (0 Bft) NO 46 5 min 0,000 mm 1,0 UV-I 219 W/m 7,2 C 18,7 C 0,0 km/h (0 Bft) 0,00 %
22.09.2015 16:55 18,6 C 46 % 1005,0 hPa 0,0 l/m 0,0 km/h (0 Bft) N-NO 33 5 min 0,000 mm 1,0 UV-I 241 W/m 6,8 C 18,6 C 0,0 km/h (0 Bft) 0,00 %
22.09.2015 17:00 18,4 C 47 % 1005,0 hPa 0,0 l/m 0,0 km/h (0 Bft) NO 48 5 min 0,000 mm 1,0 UV-I 189 W/m 6,9 C 18,4 C 0,0 km/h (0 Bft) 0,00 %
22.09.2015 17:05 18,3 C 48 % 1005,0 hPa 0,0 l/m 0,0 km/h (0 Bft) NO 50 5 min 0,000 mm 1,0 UV-I 199 W/m 7,1 C 18,3 C 0,0 km/h (0 Bft) 0,00 %
22.09.2015 17:10 18,3 C 48 % 1004,9 hPa 0,0 l/m 0,0 km/h (0 Bft) O-NO 58 5 min 0,000 mm 1,0 UV-I 392 W/m 7,1 C 18,3 C 0,0 km/h (0 Bft) 0,00 %
22.09.2015 17:15 18,3 C 47 % 1004,9 hPa 0,0 l/m 0,0 km/h (0 Bft) NO 38 5 min 0,000 mm 1,0 UV-I 510 W/m 6,8 C 18,3 C 0,0 km/h (0 Bft) 0,00 %
22.09.2015 17:20 18,6 C 46 % 1004,8 hPa 0,0 l/m 0,0 km/h (0 Bft) O-NO 60 5 min 0,000 mm 1,0 UV-I 425 W/m 6,8 C 18,6 C 0,0 km/h (0 Bft) 0,00 %
22.09.2015 17:25 18,8 C 45 % 1004,8 hPa 0,0 l/m 0,0 km/h (0 Bft) O 82 5 min 0,000 mm 1,0 UV-I 264 W/m 6,6 C 18,8 C 0,0 km/h (0 Bft) 0,00 %
22.09.2015 17:30 18,9 C 46 % 1004,8 hPa 0,0 l/m 0,0 km/h (0 Bft) NO 39 5 min 0,000 mm 1,0 UV-I 226 W/m 7,0 C 18,9 C 0,0 km/h (0 Bft) 0,00 %
22.09.2015 17:35 18,8 C 45 % 1004,8 hPa 0,0 l/m 0,0 km/h (0 Bft) O 79 5 min 0,000 mm 1,0 UV-I 207 W/m 6,6 C 18,8 C 0,0 km/h (0 Bft) 0,00 %
22.09.2015 17:40 18,7 C 45 % 1004,7 hPa 0,0 l/m 0,0 km/h (0 Bft) O-NO 60 5 min 0,000 mm 1,0 UV-I 201 W/m 6,5 C 18,7 C 0,0 km/h (0 Bft) 0,00 %
22.09.2015 17:45 18,6 C 47 % 1004,7 hPa 0,0 l/m 0,0 km/h (0 Bft) O-NO 67 5 min 0,000 mm 1,0 UV-I 197 W/m 7,1 C 18,6 C 0,0 km/h (0 Bft) 0,00 %
22.09.2015 17:50 18,4 C 47 % 1004,9 hPa 0,0 l/m 0,0 km/h (0 Bft) NO 54 5 min 0,000 mm 1,0 UV-I 164 W/m 6,9 C 18,4 C 0,0 km/h (0 Bft) 0,00 %
22.09.2015 17:55 18,3 C 47 % 1004,8 hPa 0,0 l/m 0,0 km/h (0 Bft) O-NO 62 5 min 0,000 mm 0,0 UV-I 180 W/m 6,8 C 18,3 C 0,0 km/h (0 Bft) 0,00 %
22.09.2015 18:00 18,3 C 50 % 1004,7 hPa 0,0 l/m 0,0 km/h (0 Bft) O-NO 74 5 min 0,000 mm 0,0 UV-I 148 W/m 7,7 C 18,3 C 0,0 km/h (0 Bft) 0,00 %
22.09.2015 18:05 18,3 C 50 % 1004,7 hPa 0,0 l/m 0,0 km/h (0 Bft) O-NO 63 5 min 0,000 mm 0,0 UV-I 154 W/m 7,7 C 18,3 C 0,0 km/h (0 Bft) 0,00 %
22.09.2015 18:10 18,3 C 49 % 1004,8 hPa 0,0 l/m 0,0 km/h (0 Bft) O-NO 64 5 min 0,000 mm 0,0 UV-I 134 W/m 7,4 C 18,3 C 0,0 km/h (0 Bft) 0,00 %
22.09.2015 18:15 18,2 C 51 % 1004,7 hPa 0,0 l/m 0,0 km/h (0 Bft) O-NO 71 5 min 0,000 mm 0,0 UV-I 95 W/m 7,9 C 18,2 C 0,0 km/h (0 Bft) 0,00 %
22.09.2015 18:20 18,1 C 52 % 1004,8 hPa 0,0 l/m 0,0 km/h (0 Bft) O-NO 62 5 min 0,000 mm 0,0 UV-I 75 W/m 8,1 C 18,1 C 0,0 km/h (0 Bft) 0,00 %
22.09.2015 18:25 17,9 C 54 % 1004,7 hPa 0,0 l/m 0,0 km/h (0 Bft) O-NO 58 5 min 0,000 mm 0,0 UV-I 63 W/m 8,5 C 17,9 C 0,0 km/h (0 Bft) 0,00 %
22.09.2015 18:30 17,8 C 55 % 1004,7 hPa 0,0 l/m 0,0 km/h (0 Bft) O-NO 68 5 min 0,000 mm 0,0 UV-I 52 W/m 8,6 C 17,8 C 0,0 km/h (0 Bft) 0,00 %
22.09.2015 18:35 17,6 C 57 % 1004,6 hPa 0,0 l/m 0,0 km/h (0 Bft) O-NO 62 5 min 0,000 mm 0,0 UV-I 42 W/m 9,0 C 17,6 C 0,0 km/h (0 Bft) 0,00 %
22.09.2015 18:40 17,2 C 58 % 1004,6 hPa 0,0 l/m 0,0 km/h (0 Bft) O-NO 58 5 min 0,000 mm 0,0 UV-I 30 W/m 8,9 C 17,2 C 0,0 km/h (0 Bft) 0,00 %
22.09.2015 18:45 16,9 C 59 % 1004,7 hPa 0,0 l/m 0,0 km/h (0 Bft) O-NO 75 5 min 0,000 mm 0,0 UV-I 25 W/m 8,8 C 16,9 C 0,0 km/h (0 Bft) 0,00 %
22.09.2015 18:50 16,5 C 61 % 1004,8 hPa 0,0 l/m 0,0 km/h (0 Bft) O 92 5 min 0,000 mm 0,0 UV-I 17 W/m 9,0 C 16,5 C 0,0 km/h (0 Bft) 0,00 %
22.09.2015 18:55 16,2 C 62 % 1004,8 hPa 0,0 l/m 0,0 km/h (0 Bft) O 91 0 min 0,000 mm 0,0 UV-I 7 W/m 8,9 C 16,2 C 0,0 km/h (0 Bft) 0,00 %
22.09.2015 19:00 15,9 C 62 % 1004,7 hPa 0,0 l/m 0,0 km/h (0 Bft) O-NO 71 0 min 0,000 mm 0,0 UV-I 2 W/m 8,6 C 15,9 C 0,0 km/h (0 Bft) 0,00 %
22.09.2015 19:05 15,7 C 63 % 1004,5 hPa 0,0 l/m 0,0 km/h (0 Bft) O-NO 70 0 min 0,000 mm 0,0 UV-I 0 W/m 8,7 C 15,7 C 0,0 km/h (0 Bft) 0,00 %
22.09.2015 19:10 15,5 C 65 % 1004,7 hPa 0,0 l/m 0,0 km/h (0 Bft) O-SO 104 0 min 0,000 mm 0,0 UV-I 0 W/m 8,9 C 15,5 C 0,0 km/h (0 Bft) 0,00 %
22.09.2015 19:15 15,2 C 65 % 1004,7 hPa 0,0 l/m 0,0 km/h (0 Bft) O 86 0 min 0,000 mm 0,0 UV-I 0 W/m 8,7 C 15,2 C 0,0 km/h (0 Bft) 0,00 %
22.09.2015 19:20 15,0 C 66 % 1004,6 hPa 0,0 l/m 0,0 km/h (0 Bft) S 183 0 min 0,000 mm 0,0 UV-I 0 W/m 8,7 C 15,0 C 0,0 km/h (0 Bft) 0,00 %
22.09.2015 19:25 14,8 C 67 % 1004,2 hPa 0,0 l/m 0,0 km/h (0 Bft) O-SO 121 0 min 0,000 mm 0,0 UV-I 0 W/m 8,7 C 14,8 C 0,0 km/h (0 Bft) 0,00 %
22.09.2015 19:30 14,6 C 68 % 1004,5 hPa 0,0 l/m 0,0 km/h (0 Bft) NO 49 0 min 0,000 mm 0,0 UV-I 0 W/m 8,8 C 14,6 C 0,0 km/h (0 Bft) 0,00 %
22.09.2015 19:35 14,4 C 69 % 1004,2 hPa 0,0 l/m 0,0 km/h (0 Bft) O-NO 57 0 min 0,000 mm 0,0 UV-I 0 W/m 8,8 C 14,4 C 0,0 km/h (0 Bft) 0,00 %
22.09.2015 19:40 14,3 C 69 % 1004,7 hPa 0,0 l/m 0,0 km/h (0 Bft) O-SO 105 0 min 0,000 mm 0,0 UV-I 0 W/m 8,7 C 14,3 C 0,0 km/h (0 Bft) 0,00 %
22.09.2015 19:45 14,2 C 69 % 1004,7 hPa 0,0 l/m 0,0 km/h (0 Bft) O-SO 112 0 min 0,000 mm 0,0 UV-I 0 W/m 8,6 C 14,2 C 0,0 km/h (0 Bft) 0,00 %
22.09.2015 19:50 14,0 C 69 % 1004,6 hPa 0,0 l/m 0,0 km/h (0 Bft) O-NO 66 0 min 0,000 mm 0,0 UV-I 0 W/m 8,4 C 14,0 C 0,0 km/h (0 Bft) 0,00 %
22.09.2015 19:55 13,9 C 70 % 1004,7 hPa 0,0 l/m 0,0 km/h (0 Bft) O-NO 65 0 min 0,000 mm 0,0 UV-I 0 W/m 8,5 C 13,9 C 0,0 km/h (0 Bft) 0,00 %
22.09.2015 20:00 13,8 C 70 % 1004,8 hPa 0,0 l/m 0,0 km/h (0 Bft) O-NO 57 0 min 0,000 mm 0,0 UV-I 0 W/m 8,4 C 13,8 C 0,0 km/h (0 Bft) 0,00 %
22.09.2015 20:05 13,7 C 71 % 1004,8 hPa 0,0 l/m 0,0 km/h (0 Bft) SO 127 0 min 0,000 mm 0,0 UV-I 0 W/m 8,5 C 13,7 C 0,0 km/h (0 Bft) 0,00 %
22.09.2015 20:10 13,6 C 71 % 1004,8 hPa 0,0 l/m 0,0 km/h (0 Bft) O 92 0 min 0,000 mm 0,0 UV-I 0 W/m 8,4 C 13,6 C 0,0 km/h (0 Bft) 0,00 %
22.09.2015 20:15 13,4 C 71 % 1004,8 hPa 0,0 l/m 0,0 km/h (0 Bft) O-SO 106 0 min 0,000 mm 0,0 UV-I 0 W/m 8,3 C 13,4 C 0,0 km/h (0 Bft) 0,00 %
22.09.2015 20:20 13,4 C 71 % 1004,8 hPa 0,0 l/m 0,0 km/h (0 Bft) S 173 0 min 0,000 mm 0,0 UV-I 0 W/m 8,3 C 13,4 C 0,0 km/h (0 Bft) 0,00 %
22.09.2015 20:25 13,4 C 71 % 1004,9 hPa 0,0 l/m 0,0 km/h (0 Bft) S 177 0 min 0,000 mm 0,0 UV-I 0 W/m 8,3 C 13,4 C 0,0 km/h (0 Bft) 0,00 %
22.09.2015 20:30 13,4 C 71 % 1005,1 hPa 0,0 l/m 0,0 km/h (0 Bft) O-NO 76 0 min 0,000 mm 0,0 UV-I 0 W/m 8,3 C 13,4 C 0,0 km/h (0 Bft) 0,00 %
22.09.2015 20:35 13,4 C 71 % 1004,9 hPa 0,0 l/m 0,0 km/h (0 Bft) S 180 0 min 0,000 mm 0,0 UV-I 0 W/m 8,3 C 13,4 C 0,0 km/h (0 Bft) 0,00 %
22.09.2015 20:40 13,4 C 71 % 1005,2 hPa 0,0 l/m 0,0 km/h (0 Bft) S-SW 193 0 min 0,000 mm 0,0 UV-I 0 W/m 8,3 C 13,4 C 0,0 km/h (0 Bft) 0,00 %
22.09.2015 20:45 13,4 C 71 % 1004,8 hPa 0,0 l/m 0,0 km/h (0 Bft) S 178 0 min 0,000 mm 0,0 UV-I 0 W/m 8,3 C 13,4 C 0,0 km/h (0 Bft) 0,00 %
22.09.2015 20:50 13,4 C 71 % 1005,0 hPa 0,0 l/m 0,0 km/h (0 Bft) S 190 0 min 0,000 mm 0,0 UV-I 0 W/m 8,3 C 13,4 C 0,0 km/h (0 Bft) 0,00 %
22.09.2015 20:55 13,5 C 71 % 1005,0 hPa 0,0 l/m 0,4 km/h (0 Bft) O 96 0 min 0,000 mm 0,0 UV-I 0 W/m 8,3 C 13,5 C 4,0 km/h (1 Bft) 0,00 %
22.09.2015 21:00 13,4 C 71 % 1005,0 hPa 0,0 l/m 0,0 km/h (0 Bft) S 176 0 min 0,000 mm 0,0 UV-I 0 W/m 8,3 C 13,4 C 0,0 km/h (0 Bft) 0,00 %
22.09.2015 21:05 13,4 C 71 % 1005,2 hPa 0,0 l/m 0,4 km/h (0 Bft) S-SW 194 0 min 0,000 mm 0,0 UV-I 0 W/m 8,3 C 13,4 C 4,0 km/h (1 Bft) 0,00 %
22.09.2015 21:10 13,3 C 71 % 1005,0 hPa 0,0 l/m 0,0 km/h (0 Bft) SO 144 0 min 0,000 mm 0,0 UV-I 0 W/m 8,2 C 13,3 C 0,0 km/h (0 Bft) 0,00 %
22.09.2015 21:15 13,2 C 72 % 1005,0 hPa 0,0 l/m 0,0 km/h (0 Bft) S 180 0 min 0,000 mm 0,0 UV-I 0 W/m 8,3 C 13,2 C 0,0 km/h (0 Bft) 0,00 %
22.09.2015 21:20 13,1 C 72 % 1005,1 hPa 0,0 l/m 0,0 km/h (0 Bft) S-SW 210 0 min 0,000 mm 0,0 UV-I 0 W/m 8,2 C 13,1 C 0,0 km/h (0 Bft) 0,00 %
22.09.2015 21:25 13,1 C 73 % 1004,7 hPa 0,0 l/m 0,0 km/h (0 Bft) S-SW 210 0 min 0,000 mm 0,0 UV-I 0 W/m 8,4 C 13,1 C 0,0 km/h (0 Bft) 0,00 %
22.09.2015 21:30 13,1 C 73 % 1004,7 hPa 0,0 l/m 0,0 km/h (0 Bft) S-SW 210 0 min 0,000 mm 0,0 UV-I 0 W/m 8,4 C 13,1 C 0,0 km/h (0 Bft) 0,00 %
22.09.2015 21:35 13,1 C 73 % 1004,7 hPa 0,0 l/m 0,0 km/h (0 Bft) S-SW 210 0 min 0,000 mm 0,0 UV-I 0 W/m 8,4 C 13,1 C 0,0 km/h (0 Bft) 0,00 %
22.09.2015 21:40 12,7 C 75 % 1004,7 hPa 0,0 l/m 0,0 km/h (0 Bft) O-NO 60 0 min 0,000 mm 0,0 UV-I 0 W/m 8,4 C 12,7 C 0,0 km/h (0 Bft) 0,00 %
22.09.2015 21:45 12,7 C 75 % 1004,6 hPa 0,0 l/m 0,0 km/h (0 Bft) O-NO 60 0 min 0,000 mm 0,0 UV-I 0 W/m 8,4 C 12,7 C 0,0 km/h (0 Bft) 0,00 %
22.09.2015 21:50 12,7 C 75 % 1004,5 hPa 0,0 l/m 0,0 km/h (0 Bft) O-NO 60 0 min 0,000 mm 0,0 UV-I 0 W/m 8,4 C 12,7 C 0,0 km/h (0 Bft) 0,00 %
22.09.2015 21:55 12,8 C 76 % 1004,4 hPa 0,0 l/m 0,0 km/h (0 Bft) O-SO 121 0 min 0,000 mm 0,0 UV-I 0 W/m 8,7 C 12,8 C 0,0 km/h (0 Bft) 0,00 %
22.09.2015 22:00 12,8 C 76 % 1004,4 hPa 0,0 l/m 0,0 km/h (0 Bft) SO 131 0 min 0,000 mm 0,0 UV-I 0 W/m 8,7 C 12,8 C 0,0 km/h (0 Bft) 0,00 %
22.09.2015 22:05 12,9 C 74 % 1004,6 hPa 0,0 l/m 0,0 km/h (0 Bft) S-SW 193 0 min 0,000 mm 0,0 UV-I 0 W/m 8,4 C 12,9 C 0,0 km/h (0 Bft) 0,00 %
22.09.2015 22:10 13,0 C 75 % 1004,6 hPa 0,0 l/m 1,4 km/h (1 Bft) S-SW 196 0 min 0,000 mm 0,0 UV-I 0 W/m 8,7 C 13,0 C 4,0 km/h (1 Bft) 0,00 %
22.09.2015 22:15 13,0 C 75 % 1004,5 hPa 0,0 l/m 0,0 km/h (0 Bft) S 176 0 min 0,000 mm 0,0 UV-I 0 W/m 8,7 C 13,0 C 0,0 km/h (0 Bft) 0,00 %
22.09.2015 22:20 13,1 C 76 % 1004,6 hPa 0,0 l/m 0,0 km/h (0 Bft) S-SO 148 0 min 0,000 mm 0,0 UV-I 0 W/m 9,0 C 13,1 C 0,0 km/h (0 Bft) 0,00 %
22.09.2015 22:25 13,1 C 76 % 1004,6 hPa 0,0 l/m 0,0 km/h (0 Bft) S 181 0 min 0,000 mm 0,0 UV-I 0 W/m 9,0 C 13,1 C 0,0 km/h (0 Bft) 0,00 %
22.09.2015 22:30 13,1 C 76 % 1004,6 hPa 0,0 l/m 0,0 km/h (0 Bft) S 177 0 min 0,000 mm 0,0 UV-I 0 W/m 9,0 C 13,1 C 0,0 km/h (0 Bft) 0,00 %
22.09.2015 22:35 13,1 C 76 % 1004,6 hPa 0,0 l/m 0,0 km/h (0 Bft) SO 132 0 min 0,000 mm 0,0 UV-I 0 W/m 9,0 C 13,1 C 0,0 km/h (0 Bft) 0,00 %
22.09.2015 22:40 13,1 C 77 % 1004,8 hPa 0,0 l/m 0,0 km/h (0 Bft) S 186 0 min 0,000 mm 0,0 UV-I 0 W/m 9,2 C 13,1 C 0,0 km/h (0 Bft) 0,00 %
22.09.2015 22:45 13,2 C 76 % 1004,7 hPa 0,0 l/m 1,8 km/h (1 Bft) S 183 0 min 0,000 mm 0,0 UV-I 0 W/m 9,1 C 13,2 C 4,0 km/h (1 Bft) 0,00 %
22.09.2015 22:50 13,3 C 76 % 1004,8 hPa 0,0 l/m 1,8 km/h (1 Bft) S-SW 194 0 min 0,000 mm 0,0 UV-I 0 W/m 9,2 C 13,3 C 4,0 km/h (1 Bft) 0,00 %
22.09.2015 22:55 13,4 C 75 % 1005,2 hPa 0,0 l/m 2,9 km/h (1 Bft) S-SW 196 0 min 0,000 mm 0,0 UV-I 0 W/m 9,1 C 13,4 C 4,0 km/h (1 Bft) 0,00 %
22.09.2015 23:00 13,5 C 75 % 1005,3 hPa 0,0 l/m 0,0 km/h (0 Bft) O 93 0 min 0,000 mm 0,0 UV-I 0 W/m 9,2 C 13,5 C 0,0 km/h (0 Bft) 0,00 %
22.09.2015 23:05 13,6 C 75 % 1005,3 hPa 0,0 l/m 2,2 km/h (1 Bft) S 175 0 min 0,000 mm 0,0 UV-I 0 W/m 9,3 C 13,6 C 4,0 km/h (1 Bft) 0,00 %
22.09.2015 23:10 13,7 C 75 % 1005,2 hPa 0,0 l/m 0,0 km/h (0 Bft) S-SW 200 0 min 0,000 mm 0,0 UV-I 0 W/m 9,3 C 13,7 C 0,0 km/h (0 Bft) 0,00 %
22.09.2015 23:15 13,8 C 75 % 1005,2 hPa 0,0 l/m 0,0 km/h (0 Bft) SW 222 0 min 0,000 mm 0,0 UV-I 0 W/m 9,4 C 13,8 C 0,0 km/h (0 Bft) 0,00 %
22.09.2015 23:20 13,7 C 76 % 1005,4 hPa 0,0 l/m 0,0 km/h (0 Bft) O-SO 103 0 min 0,000 mm 0,0 UV-I 0 W/m 9,5 C 13,7 C 0,0 km/h (0 Bft) 0,00 %
22.09.2015 23:25 13,7 C 76 % 1005,3 hPa 0,0 l/m 0,0 km/h (0 Bft) S-SW 202 0 min 0,000 mm 0,0 UV-I 0 W/m 9,5 C 13,7 C 0,0 km/h (0 Bft) 0,00 %
22.09.2015 23:30 13,7 C 76 % 1005,2 hPa 0,0 l/m 0,0 km/h (0 Bft) O 80 0 min 0,000 mm 0,0 UV-I 0 W/m 9,5 C 13,7 C 0,0 km/h (0 Bft) 0,00 %
22.09.2015 23:35 13,6 C 77 % 1005,2 hPa 0,0 l/m 0,0 km/h (0 Bft) SO 141 0 min 0,000 mm 0,0 UV-I 0 W/m 9,6 C 13,6 C 0,0 km/h (0 Bft) 0,00 %
22.09.2015 23:40 13,6 C 77 % 1005,2 hPa 0,0 l/m 1,8 km/h (1 Bft) S-SW 203 0 min 0,000 mm 0,0 UV-I 0 W/m 9,6 C 13,6 C 4,0 km/h (1 Bft) 0,00 %
22.09.2015 23:45 13,6 C 77 % 1005,3 hPa 0,0 l/m 0,4 km/h (0 Bft) S-SW 200 0 min 0,000 mm 0,0 UV-I 0 W/m 9,6 C 13,6 C 4,0 km/h (1 Bft) 0,00 %
22.09.2015 23:50 13,6 C 77 % 1005,2 hPa 0,0 l/m 0,0 km/h (0 Bft) O-NO 68 0 min 0,000 mm 0,0 UV-I 0 W/m 9,6 C 13,6 C 0,0 km/h (0 Bft) 0,00 %
22.09.2015 23:55 13,6 C 78 % 1005,3 hPa 0,0 l/m 0,0 km/h (0 Bft) W-SW 250 0 min 0,000 mm 0,0 UV-I 0 W/m 9,8 C 13,6 C 0,0 km/h (0 Bft) 0,00 %
_ Min-Zeit 05:55 16:25 19:25 - 00:04 - - - - - - 05:55 05:55 00:04 00:04
Minimum _ 4,0 C 44 % 1004,2 hPa - 0,0 km/h (0 Bft) - - - - - - 3,9 C 4,0 C 0,0 km/h (0 Bft) 0,00 %
_ Max-Zeit 16:30 04:45 00:04 00:04 14:09 - - 16:05 00:04 12:39 13:39 23:55 16:30 13:29 00:04
Maximum _ 19,1 C 99 % 1012,4 hPa 0,0 l/m 8,3 km/h
N-NO (2 Bft)
- - 6 min 0,000 mm 3,0 UV-I 898 W/m 9,8 C 19,1 C 11,9 km/h
N-NW (2 Bft)
0,00 %
Durchschnitt _ 12,0 C 73 % 1007,9 hPa #0,0 l/m 0,3 km/h (0 Bft) S-SW - #9:46 h #0,000 mm 1,5 UV-I 356 W/m 6,9 C 12,0 C 0,7 km/h (0 Bft) 0,00 %